{"data":{"norad_id":64096,"intl_designator":"2025-110A","name":"STARLINK-34178","alt_names":[],"object_type":"PAYLOAD","status":"ACTIVE","operator":null,"country":"US","launch_date":"2025-05-23","launch_site_code":"AFWTR","launch_vehicle":null,"mission":null,"orbit_class":"UNKNOWN","rcs_meters":null,"size_class":null,"mass_kg":null,"dimensions":null,"purposes":["comms"],"wikipedia_slug":null,"has_3d_model":false,"image_url":null,"decayed_at":null,"tle_current":{"epoch":"2026-09-20T11:07:01.591104Z","epoch_age_seconds":146762,"freshness":"FRESH","line1":"1 64096U 25110A   26263.46321286  .00008825  00000+0  29565-3 0  9997","line2":"2 64096  53.1537 201.3193 0001071 126.8504 233.2596 15.31716929 75719","mean_motion":15.31716929,"eccentricity":0.0001071,"inclination_deg":53.1537,"raan_deg":201.3193,"arg_perigee_deg":126.8504,"mean_anomaly_deg":233.2596,"bstar":0.00029565,"rev_number":7571,"period_min":94.012148898826,"perigee_km":469.95602190086,"apogee_km":471.42304054385,"semimajor_km":6848.8265312224,"source":"CELESTRAK","updated_at":"2026-09-21T09:00:35.226208Z"}}}